| time (UTC) | temp F | wind direction | speed knots | gust knots | rain 1hr in | rain 24hr in | rain mn in | humidity % | barometer mb |
| 20260510181556 | 67 | 0 | 0.0 | 4.3 | 0.00 | 0.24 | 0.04 | 60 | 1003.1 |
| 20260510180106 | 67 | 0 | 0.9 | 5.2 | 0.00 | 0.24 | 0.04 | 58 | 1003.2 |
| 20260510174551 | 67 | 0 | 0.0 | 4.3 | 0.00 | 0.30 | 0.04 | 63 | 1002.9 |
| 20260510173053 | 67 | 0 | 0.0 | 10.4 | 0.00 | 0.30 | 0.04 | 64 | 1003.0 |
| 20260510171559 | 68 | 31 | 0.9 | 3.5 | 0.00 | 0.30 | 0.04 | 66 | 1002.9 |
| 20260510170055 | 66 | 175 | 1.7 | 10.4 | 0.00 | 0.30 | 0.04 | 64 | 1003.4 |
| 20260510164557 | 66 | 124 | 0.9 | 7.8 | 0.00 | 0.34 | 0.04 | 65 | 1003.4 |
| 20260510163103 | 65 | 164 | 0.9 | 3.5 | 0.00 | 0.34 | 0.04 | 67 | 1003.3 |
| 20260510161600 | 65 | 91 | 0.9 | 3.5 | 0.00 | 0.34 | 0.04 | 67 | 1003.3 |
| 20260510160111 | 66 | 147 | 0.9 | 5.2 | 0.01 | 0.34 | 0.04 | 68 | 1003.3 |
| 20260510154549 | 64 | 321 | 1.7 | 7.0 | 0.01 | 0.39 | 0.04 | 74 | 1003.3 |
| 20260510153100 | 63 | 0 | 0.9 | 5.2 | 0.01 | 0.39 | 0.04 | 83 | 1003.4 |
| 20260510151553 | 62 | 0 | 0.9 | 5.2 | 0.01 | 0.39 | 0.04 | 83 | 1003.5 |
| 20260510144554 | 61 | 185 | 0.9 | 2.6 | 0.00 | 0.39 | 0.03 | 87 | 1003.2 |
| 20260510143107 | 60 | 0 | 0.0 | 5.2 | 0.00 | 0.39 | 0.03 | 93 | 1003.1 |
| 20260510141553 | 56 | 183 | 0.0 | 2.6 | 0.00 | 0.39 | 0.03 | 97 | 1003.0 |
| 20260510140052 | 56 | 0 | 0.9 | 2.6 | 0.00 | 0.39 | 0.03 | 97 | 1003.0 |
| 20260510134557 | 55 | 203 | 0.0 | 1.7 | 0.00 | 0.41 | 0.03 | 97 | 1003.1 |
| 20260510133051 | 54 | 272 | 0.9 | 2.6 | 0.00 | 0.41 | 0.03 | 97 | 1003.1 |
| 20260510131555 | 53 | 0 | 0.0 | 2.6 | 0.00 | 0.41 | 0.03 | 97 | 1003.4 |
| 20260510130100 | 52 | 0 | 0.0 | 1.7 | 0.00 | 0.41 | 0.03 | 97 | 1003.5 |
| 20260510124555 | 52 | 0 | 0.0 | 1.7 | 0.00 | 0.41 | 0.03 | 97 | 1003.5 |
| 20260510123053 | 51 | 0 | 0.0 | 1.7 | 0.00 | 0.41 | 0.03 | 97 | 1003.2 |
| 20260510121552 | 50 | 0 | 0.0 | 0.0 | 0.00 | 0.41 | 0.03 | 97 | 1003.0 |
| 20260510120053 | 50 | 0 | 0.0 | 0.0 | 0.00 | 0.41 | 0.03 | 96 | 1002.9 |
| 20260510114550 | 50 | 0 | 0.0 | 0.0 | 0.01 | 0.43 | 0.03 | 96 | 1003.1 |
| 20260510113108 | 50 | 0 | 0.0 | 0.0 | 0.01 | 0.43 | 0.03 | 96 | 1002.7 |
| 20260510111559 | 49 | 231 | 0.0 | 0.0 | 0.01 | 0.43 | 0.03 | 96 | 1002.6 |
| 20260510110059 | 49 | 0 | 0.0 | 0.0 | 0.01 | 0.43 | 0.03 | 96 | 1002.6 |
| 20260510104600 | 49 | 0 | 0.0 | 1.7 | 0.00 | 0.42 | 0.02 | 96 | 1002.2 |
| 20260510103058 | 49 | 0 | 0.0 | 0.9 | 0.00 | 0.42 | 0.02 | 96 | 1002.1 |
| 20260510101558 | 49 | 0 | 0.0 | 0.9 | 0.00 | 0.42 | 0.02 | 96 | 1002.1 |
| 20260510100056 | 49 | 0 | 0.0 | 1.7 | 0.00 | 0.42 | 0.02 | 96 | 1002.0 |
| 20260510094555 | 49 | 0 | 0.0 | 1.7 | 0.00 | 0.43 | 0.02 | 96 | 1001.9 |
| 20260510093107 | 49 | 0 | 0.0 | 0.0 | 0.00 | 0.43 | 0.02 | 96 | 1001.8 |
| 20260510091558 | 49 | 0 | 0.0 | 0.9 | 0.00 | 0.43 | 0.02 | 96 | 1001.4 |
| 20260510090059 | 50 | 0 | 0.0 | 0.9 | 0.00 | 0.43 | 0.02 | 96 | 1001.4 |
| 20260510084554 | 50 | 0 | 0.0 | 0.0 | 0.00 | 0.45 | 0.02 | 96 | 1001.2 |
| 20260510083053 | 50 | 0 | 0.0 | 0.0 | 0.00 | 0.45 | 0.02 | 96 | 1001.4 |
| 20260510081623 | 50 | 0 | 0.0 | 2.6 | 0.00 | 0.45 | 0.02 | 96 | 1001.7 |
| 20260510080051 | 50 | 0 | 0.0 | 0.9 | 0.00 | 0.45 | 0.02 | 96 | 1001.6 |
| 20260510074556 | 51 | 182 | 0.0 | 0.9 | 0.01 | 0.48 | 0.02 | 96 | 1002.1 |
| 20260510073101 | 51 | 0 | 0.0 | 0.9 | 0.01 | 0.48 | 0.02 | 96 | 1002.0 |
| 20260510071551 | 51 | 0 | 0.0 | 1.7 | 0.01 | 0.48 | 0.02 | 96 | 1002.2 |
| 20260510070051 | 50 | 0 | 0.0 | 0.0 | 0.01 | 0.48 | 0.02 | 96 | 1002.3 |
| 20260510064557 | 50 | 0 | 0.0 | 1.7 | 0.00 | 0.48 | 0.01 | 96 | 1002.3 |
| 20260510063050 | 50 | 0 | 0.0 | 2.6 | 0.00 | 0.48 | 0.01 | 96 | 1002.3 |
| 20260510061552 | 50 | 0 | 0.0 | 2.6 | 0.00 | 0.48 | 0.01 | 96 | 1001.6 |
| 20260510060057 | 51 | 0 | 0.0 | 0.0 | 0.00 | 0.48 | 0.01 | 96 | 1001.6 |
| 20260510054551 | 51 | 0 | 0.0 | 0.0 | 0.00 | 0.48 | 0.01 | 96 | 1001.6 |
| 20260510053107 | 51 | 0 | 0.0 | 0.0 | 0.00 | 0.48 | 0.01 | 96 | 1001.7 |
| 20260510051604 | 51 | 0 | 0.0 | 2.6 | 0.00 | 0.48 | 0.01 | 96 | 1001.8 |
| 20260510050100 | 51 | 0 | 0.0 | 0.0 | 0.01 | 0.48 | 0.01 | 96 | 1001.6 |
| 20260510044604 | 51 | 0 | 0.0 | 0.0 | 0.01 | 0.48 | 0.01 | 96 | 1001.5 |
| 20260510043057 | 51 | 0 | 0.0 | 0.0 | 0.01 | 0.48 | 0.01 | 96 | 1001.5 |
| 20260510041550 | 51 | 0 | 0.0 | 0.0 | 0.01 | 0.48 | 0.01 | 96 | 1001.4 |
| 20260510040054 | 51 | 0 | 0.0 | 0.0 | 0.00 | 0.47 | 0.00 | 95 | 1001.4 |
| 20260510034556 | 51 | 0 | 0.0 | 0.0 | 0.00 | 0.47 | 0.47 | 95 | 1001.3 |
| 20260510033108 | 51 | 0 | 0.0 | 0.0 | 0.00 | 0.47 | 0.47 | 95 | 1001.3 |
| 20260510031552 | 52 | 0 | 0.0 | 0.0 | 0.00 | 0.47 | 0.47 | 95 | 1001.4 |
| 20260510030107 | 52 | 0 | 0.0 | 0.0 | 0.00 | 0.47 | 0.47 | 95 | 1001.7 |
| 20260510024553 | 52 | 0 | 0.0 | 0.0 | 0.00 | 0.47 | 0.47 | 95 | 1001.5 |
| 20260510023052 | 52 | 0 | 0.0 | 0.0 | 0.01 | 0.47 | 0.47 | 95 | 1001.6 |
| 20260510021551 | 52 | 0 | 0.0 | 1.7 | 0.01 | 0.47 | 0.47 | 95 | 1001.5 |
| 20260510020053 | 52 | 0 | 0.0 | 2.6 | 0.01 | 0.47 | 0.47 | 95 | 1001.1 |
| 20260510014553 | 52 | 0 | 0.0 | 2.6 | 0.01 | 0.47 | 0.47 | 95 | 1001.3 |
| 20260510013051 | 52 | 0 | 0.0 | 0.9 | 0.00 | 0.46 | 0.46 | 95 | 1001.4 |
| 20260510011548 | 52 | 0 | 0.0 | 0.9 | 0.00 | 0.46 | 0.46 | 95 | 1001.2 |
| 20260510010051 | 52 | 0 | 0.0 | 0.0 | 0.01 | 0.46 | 0.46 | 95 | 1001.1 |
| 20260510004548 | 53 | 0 | 0.0 | 0.0 | 0.01 | 0.46 | 0.46 | 95 | 1000.8 |
| 20260510003054 | 53 | 0 | 0.0 | 1.7 | 0.01 | 0.46 | 0.46 | 95 | 1000.7 |
| 20260510001556 | 53 | 0 | 0.0 | 0.0 | 0.01 | 0.46 | 0.46 | 95 | 1000.7 |
| 20260510000054 | 53 | 0 | 0.0 | 0.0 | 0.01 | 0.45 | 0.45 | 95 | 1000.4 |
| 20260509234556 | 53 | 0 | 0.0 | 1.7 | 0.01 | 0.45 | 0.45 | 95 | 1000.1 |
| 20260509233059 | 53 | 0 | 0.0 | 0.0 | 0.01 | 0.45 | 0.45 | 95 | 1000.0 |
| 20260509231552 | 53 | 0 | 0.0 | 0.0 | 0.01 | 0.45 | 0.45 | 95 | 1000.0 |
| 20260509230051 | 53 | 0 | 0.0 | 0.9 | 0.01 | 0.44 | 0.44 | 95 | 1000.1 |
| 20260509224600 | 53 | 0 | 0.0 | 1.7 | 0.01 | 0.44 | 0.44 | 95 | 1000.1 |
| 20260509223100 | 53 | 0 | 0.0 | 0.9 | 0.02 | 0.44 | 0.44 | 95 | 1000.3 |
| 20260509221555 | 53 | 0 | 0.0 | 0.0 | 0.02 | 0.44 | 0.44 | 95 | 1000.2 |
| 20260509214554 | 53 | 0 | 0.0 | 0.9 | 0.03 | 0.43 | 0.43 | 95 | 1000.3 |
| 20260509213056 | 53 | 0 | 0.0 | 0.9 | 0.03 | 0.42 | 0.42 | 95 | 1000.4 |
| 20260509211602 | 53 | 0 | 0.0 | 0.0 | 0.03 | 0.42 | 0.42 | 95 | 1000.3 |
| 20260509210053 | 53 | 0 | 0.0 | 0.9 | 0.03 | 0.41 | 0.41 | 95 | 1000.5 |
| 20260509204555 | 53 | 216 | 0.0 | 1.7 | 0.04 | 0.40 | 0.40 | 95 | 1000.6 |
| 20260509203103 | 52 | 0 | 0.0 | 0.9 | 0.04 | 0.39 | 0.39 | 95 | 1000.8 |
| 20260509201602 | 52 | 0 | 0.0 | 0.9 | 0.05 | 0.39 | 0.39 | 94 | 1001.2 |
| 20260509200108 | 52 | 0 | 0.0 | 1.7 | 0.04 | 0.37 | 0.37 | 94 | 1001.2 |
| 20260509194553 | 52 | 0 | 0.0 | 2.6 | 0.05 | 0.36 | 0.36 | 94 | 1001.6 |
| 20260509193113 | 52 | 0 | 0.0 | 0.9 | 0.05 | 0.35 | 0.35 | 94 | 1001.7 |
| 20260509191559 | 52 | 139 | 0.9 | 1.7 | 0.06 | 0.34 | 0.34 | 94 | 1001.8 |
| 20260509190053 | 52 | 139 | 0.0 | 1.7 | 0.06 | 0.33 | 0.33 | 94 | 1001.9 |
| 20260509184604 | 52 | 0 | 0.0 | 0.0 | 0.06 | 0.31 | 0.31 | 94 | 1002.3 |
| 20260509183056 | 52 | 0 | 0.0 | 0.0 | 0.06 | 0.30 | 0.30 | 94 | 1002.2 |